Regional Weather Roundup
Issued by NWS New Orleans/Baton Rouge, LA

Home | Current Version | Previous Version | Graphics & Text | Print | Product List | Glossary On
Versions: 1 2 3 4 5 6 7 8 9 10 11 12 13 14 15 16 17 18 19 20 21 22 23 24 25 26 27 28 29 30 31 32 33 34 35 36 37 38 39 40 41 42 43 44 45 46 47 48 49 50
839
ASUS44 KLIX 211005
RWRLIX
NEW ORLEANS REGIONAL WEATHER ROUNDUP
NATIONAL WEATHER SERVICE NEW ORLEANS LA
500 AM CDT MON APR 21 2014

NOTE: "FAIR" INDICATES FEW OR NO CLOUDS BELOW 12,000 FEET WITH NO
      SIGNIFICANT WEATHER AND/OR OBSTRUCTIONS TO VISIBILITY.
      SKY/WX - SKY CONDITION AND SIGNIFICANT WEATHER.
      TMP - AIR TEMPERATURE.     DP    - DEWPOINT TEMPERATURE.
      RH  - RELATIVE HUMIDITY.   PRES  - PRESSURE.
      HI  - HEAT INDEX.          WCI   - WIND CHILL INDEX.

*  THESE STATIONS ARE NOT NWS OR FAA STATIONS AND ARE NOT UNDER
   NWS QUALITY CONTROL.

LAZ038-040-048-061>063-065>067-069-211100-
SOUTHEAST LOUISIANA

CITY           SKY/WX    TMP DP  RH WIND       PRES   REMARKS
N.O. AUDUBON   NOT AVBL
N.O. INTL ARPT PTCLDY    61  57  87 CALM      30.13S
N.O. LAKEFRONT CLEAR     61  57  87 CALM      30.13F
N.O. DOWNTOWN*   N/A     64  55  72 S3        30.14S
SLIDELL        MOCLDY    54  52  93 CALM      30.13S
BATON ROUGE    CLOUDY    63  60  90 SE5       30.12F FOG
BOOTHVILLE     PTCLDY    60  57  89 NE3       30.13R
BELLE CHASSE   PTCLDY   N/A N/A N/A CALM      30.13S
BOGALUSA*      FOG       55  52  90 NW3       30.15S VSB 1
GALLIANO*      SUNNY     57  56  94 CALM      30.13R
NEW ROADS*     PTSUNNY   60  58  95 SE5       30.13R FOG
GONZALES*        N/A     61  61 100 CALM      30.13R
HAMMOND*       CLEAR     61  57  88 CALM      30.15S
HOUMA*           N/A     59  57  92 CALM      30.13R
PORT FOURCHON* SUNNY     64  59  82 CALM      30.14R

$$

MSZ070-080>082-211100-
SOUTHERN MISSISSIPPI

CITY           SKY/WX    TMP DP  RH WIND       PRES   REMARKS
MCCOMB         CLOUDY    61  59  93 S5        30.13S
GULFPORT       CLEAR     58  54  86 N3        30.13S
BILOXI         CLEAR     58  58 100 CALM      30.13S
PASCAGOULA     CLEAR     53  52  96 CALM      30.14R FOG

$$

COASTAL OBSERVATIONS
LAKE AND NEARSHORE STATIONS

STATION/POSITION TIME  TEMP    WIND        PRES    WAVE
                       AIR SEA DIR/SP/G            HT/PER
                 (UTC) (F)     (DEG/KT/KT) (MB)    (FT/S)
PASCAGOULA       1000   59     140/  2/  4 1019.6
WAVELAND YACHT   1000   60 70  320/  2/  3 1019.6
GRAND ISLE       1000   64 69  100/  3/  5 1020.4
SOUTHWEST PASS   1000   61 58   30/  6/  7 1020.0
NEW CANAL        1000   62 67  170/  2/  2 1020.7
SHELL BEACH      1000   63 67   90/  1/  2 1020.0

OFFSHORE STATIONS

STATION/POSITION TIME  TEMP    WIND        PRES    WAVE
                       AIR SEA DIR/SP/G            HT/PER
                 (UTC) (F)     (DEG/KT/KT) (MB)    (FT/S)
64 S DAUPHIN ISL 0930   63 70   70/  4/  8 1020.0

$$




USA.gov is the U.S. government's official web portal to all federal, state and local government web resources and services.